Time,TemperatureF,DewpointF,PressureIn,WindDirection,WindDirectionDegrees,WindSpeedMPH,WindSpeedGustMPH,Humidity,HourlyPrecipIn,Conditions,Clouds,dailyrainin,SolarRadiationWatts/m^2,SoftwareType,DateUTC
2013-02-06 00:03:00,1.7,-1.8,30.14,NW,304,0.0,0.0,85,0.00,,---,0.00,0.00,VWS V14.00,2013-02-06 06:03:00,
2013-02-06 00:08:00,1.6,-1.6,30.13,NW,304,0.0,0.0,86,0.00,,---,0.00,0.00,VWS V14.00,2013-02-06 06:08:00,
2013-02-06 00:13:00,1.8,-0.9,30.14,NW,304,0.0,0.0,88,0.00,,---,0.00,0.00,VWS V14.00,2013-02-06 06:13:00,
2013-02-06 00:18:00,2.0,-0.5,30.14,NW,304,0.0,0.0,89,0.00,,---,0.00,0.00,VWS V14.00,2013-02-06 06:18:00,
2013-02-06 00:23:00,2.2,-0.3,30.14,NW,304,0.0,0.0,89,0.00,,---,0.00,0.00,VWS V14.00,2013-02-06 06:23:00,
2013-02-06 00:28:00,2.3,-0.4,30.14,NW,304,0.0,0.0,88,0.00,,---,0.00,0.00,VWS V14.00,2013-02-06 06:28:00,
2013-02-06 00:33:00,2.1,-0.9,30.14,NW,304,0.0,0.0,87,0.00,,---,0.00,0.00,VWS V14.00,2013-02-06 06:33:00,
2013-02-06 00:38:00,1.7,-1.5,30.14,NW,304,0.0,0.0,86,0.00,,---,0.00,0.00,VWS V14.00,2013-02-06 06:38:00,
2013-02-06 00:43:00,1.3,-2.2,30.14,NW,304,0.0,0.0,85,0.00,,---,0.00,0.00,VWS V14.00,2013-02-06 06:43:00,
2013-02-06 00:49:00,0.9,-2.5,30.15,NW,304,0.0,0.0,85,0.00,,---,0.00,0.00,VWS V14.00,2013-02-06 06:49:00,
2013-02-06 00:54:00,0.9,-2.0,30.14,NW,304,0.0,0.0,87,0.00,,---,0.00,0.00,VWS V14.00,2013-02-06 06:54:00,
2013-02-06 00:59:00,1.3,-1.2,30.14,NW,304,0.0,0.0,89,0.00,,---,0.00,0.00,VWS V14.00,2013-02-06 06:59:00,
2013-02-06 01:04:00,1.4,-1.3,30.15,NW,304,0.0,0.0,88,0.00,,---,0.00,0.00,VWS V14.00,2013-02-06 07:04:00,
2013-02-06 01:09:00,1.2,-1.8,30.15,NW,304,0.0,0.0,87,0.00,,---,0.00,0.00,VWS V14.00,2013-02-06 07:09:00,
2013-02-06 01:14:00,0.8,-2.6,30.15,NW,304,0.0,0.0,85,0.00,,---,0.00,0.00,VWS V14.00,2013-02-06 07:14:00,
2013-02-06 01:19:00,0.5,-2.7,30.16,NW,304,0.0,0.0,86,0.00,,---,0.00,0.00,VWS V14.00,2013-02-06 07:19:00,
2013-02-06 01:24:00,0.3,-2.9,30.16,NW,304,0.0,0.0,86,0.00,,---,0.00,0.00,VWS V14.00,2013-02-06 07:24:00,
2013-02-06 01:29:00,0.8,-1.7,30.16,NW,304,1.0,1.0,89,0.00,,---,0.00,0.00,VWS V14.00,2013-02-06 07:29:00,
2013-02-06 01:34:00,1.6,-0.6,30.16,NW,304,0.0,1.0,90,0.00,,---,0.00,0.00,VWS V14.00,2013-02-06 07:34:00,
2013-02-06 01:39:00,2.0,-0.2,30.15,NW,304,0.0,1.0,90,0.00,,---,0.00,0.00,VWS V14.00,2013-02-06 07:39:00,
2013-02-06 01:44:00,2.2,-0.3,30.16,NW,304,0.0,1.0,89,0.00,,---,0.00,0.00,VWS V14.00,2013-02-06 07:44:00,
2013-02-06 01:49:00,2.3,-0.4,30.16,NW,304,0.0,1.0,88,0.00,,---,0.00,0.00,VWS V14.00,2013-02-06 07:49:00,
2013-02-06 01:55:00,2.5,0.0,30.16,NW,304,0.0,1.0,89,0.00,,---,0.00,0.00,VWS V14.00,2013-02-06 07:55:00,
2013-02-06 02:00:00,2.9,0.4,30.16,NW,304,0.0,0.0,89,0.00,,---,0.00,0.00,VWS V14.00,2013-02-06 08:00:00,
2013-02-06 02:05:00,3.3,0.8,30.16,NW,304,0.0,0.0,89,0.00,,---,0.00,0.00,VWS V14.00,2013-02-06 08:05:00,
2013-02-06 02:10:00,3.6,1.1,30.16,NW,304,0.0,0.0,89,0.00,,---,0.00,0.00,VWS V14.00,2013-02-06 08:10:00,
2013-02-06 02:15:00,3.7,1.2,30.16,NW,304,0.0,0.0,89,0.00,,---,0.00,0.00,VWS V14.00,2013-02-06 08:15:00,
2013-02-06 02:20:00,3.7,0.9,30.16,NW,304,0.0,0.0,88,0.00,,---,0.00,0.00,VWS V14.00,2013-02-06 08:20:00,
2013-02-06 02:25:00,3.7,0.9,30.17,NW,304,0.0,0.0,88,0.00,,---,0.00,0.00,VWS V14.00,2013-02-06 08:25:00,
2013-02-06 02:30:00,3.7,0.9,30.17,NW,304,0.0,0.0,88,0.00,,---,0.00,0.00,VWS V14.00,2013-02-06 08:30:00,
2013-02-06 02:35:00,3.6,0.6,30.17,NW,304,0.0,0.0,87,0.00,,---,0.00,0.00,VWS V14.00,2013-02-06 08:35:00,
2013-02-06 02:40:00,3.5,0.5,30.17,NW,304,0.0,0.0,87,0.00,,---,0.00,0.00,VWS V14.00,2013-02-06 08:40:00,
2013-02-06 02:46:00,3.4,0.4,30.16,NW,304,0.0,0.0,87,0.00,,---,0.00,0.00,VWS V14.00,2013-02-06 08:46:00,
2013-02-06 02:51:00,3.3,0.3,30.16,NW,304,0.0,0.0,87,0.00,,---,0.00,0.00,VWS V14.00,2013-02-06 08:51:00,
2013-02-06 02:56:00,3.1,0.1,30.16,NW,304,0.0,0.0,87,0.00,,---,0.00,0.00,VWS V14.00,2013-02-06 08:56:00,
2013-02-06 03:01:00,2.9,-0.1,30.16,NW,304,0.0,1.0,87,0.00,,---,0.00,0.00,VWS V14.00,2013-02-06 09:01:00,
2013-02-06 03:06:00,2.8,-0.4,30.15,NW,304,0.0,1.0,86,0.00,,---,0.00,0.00,VWS V14.00,2013-02-06 09:06:00,
2013-02-06 03:11:00,2.6,-0.6,30.15,NW,304,0.0,1.0,86,0.00,,---,0.00,0.00,VWS V14.00,2013-02-06 09:11:00,
2013-02-06 03:16:00,2.3,-0.9,30.15,NW,304,0.0,1.0,86,0.00,,---,0.00,0.00,VWS V14.00,2013-02-06 09:16:00,
2013-02-06 03:21:00,1.9,-1.6,30.14,NW,304,0.0,1.0,85,0.00,,---,0.00,0.00,VWS V14.00,2013-02-06 09:21:00,
2013-02-06 03:26:00,1.6,-1.6,30.14,NW,304,0.0,1.0,86,0.00,,---,0.00,0.00,VWS V14.00,2013-02-06 09:26:00,
2013-02-06 03:31:00,1.4,-2.0,30.13,NW,304,0.0,0.0,85,0.00,,---,0.00,0.00,VWS V14.00,2013-02-06 09:31:00,
2013-02-06 03:36:00,1.1,-2.3,30.13,NW,304,0.0,0.0,85,0.00,,---,0.00,0.00,VWS V14.00,2013-02-06 09:36:00,
2013-02-06 03:41:00,0.7,-3.0,30.13,NW,304,0.0,0.0,84,0.00,,---,0.00,0.00,VWS V14.00,2013-02-06 09:41:00,
2013-02-06 03:46:00,0.2,-3.5,30.13,NW,304,0.0,0.0,84,0.00,,---,0.00,0.00,VWS V14.00,2013-02-06 09:46:00,
2013-02-06 03:52:00,-0.2,-3.9,30.13,NW,304,0.0,0.0,84,0.00,,---,0.00,0.00,VWS V14.00,2013-02-06 09:52:00,
2013-02-06 03:57:00,-0.5,-4.2,30.12,NW,304,0.0,0.0,84,0.00,,---,0.00,0.00,VWS V14.00,2013-02-06 09:57:00,
2013-02-06 04:02:00,-0.8,-4.2,30.13,NW,304,0.0,0.0,85,0.00,,---,0.00,0.00,VWS V14.00,2013-02-06 10:02:00,
2013-02-06 04:07:00,-0.9,-4.3,30.13,NW,304,0.0,0.0,85,0.00,,---,0.00,0.00,VWS V14.00,2013-02-06 10:07:00,
2013-02-06 04:12:00,-1.1,-4.5,30.13,NW,304,0.0,0.0,85,0.00,,---,0.00,0.00,VWS V14.00,2013-02-06 10:12:00,
2013-02-06 04:17:00,-1.4,-5.1,30.12,NW,304,0.0,0.0,84,0.00,,---,0.00,0.00,VWS V14.00,2013-02-06 10:17:00,
2013-02-06 04:22:00,-1.7,-5.3,30.12,NW,304,0.0,0.0,84,0.00,,---,0.00,0.00,VWS V14.00,2013-02-06 10:22:00,
2013-02-06 04:27:00,-1.9,-5.5,30.12,NW,304,0.0,0.0,84,0.00,,---,0.00,0.00,VWS V14.00,2013-02-06 10:27:00,
2013-02-06 04:32:00,-2.2,-5.8,30.12,NW,304,0.0,0.0,84,0.00,,---,0.00,0.00,VWS V14.00,2013-02-06 10:32:00,
2013-02-06 04:37:00,-2.4,-6.0,30.12,NW,304,0.0,0.0,84,0.00,,---,0.00,0.00,VWS V14.00,2013-02-06 10:37:00,
2013-02-06 04:43:00,-2.5,-5.9,30.11,NW,304,0.0,0.0,85,0.00,,---,0.00,0.00,VWS V14.00,2013-02-06 10:43:00,
2013-02-06 04:48:00,-2.5,-5.9,30.12,NW,304,0.0,0.0,85,0.00,,---,0.00,0.00,VWS V14.00,2013-02-06 10:48:00,
2013-02-06 04:53:00,-2.6,-6.0,30.13,NW,304,0.0,0.0,85,0.00,,---,0.00,0.00,VWS V14.00,2013-02-06 10:53:00,
2013-02-06 04:58:00,-2.5,-5.6,30.14,NW,304,0.0,0.0,86,0.00,,---,0.00,0.00,VWS V14.00,2013-02-06 10:58:00,
2013-02-06 05:03:00,-2.0,-4.7,30.14,NW,304,0.0,1.0,88,0.00,,---,0.00,0.00,VWS V14.00,2013-02-06 11:03:00,
2013-02-06 05:08:00,-1.5,-4.0,30.13,NW,304,0.0,1.0,89,0.00,,---,0.00,0.00,VWS V14.00,2013-02-06 11:08:00,
2013-02-06 05:13:00,-0.6,-2.8,30.14,NW,304,0.0,1.0,90,0.00,,---,0.00,0.00,VWS V14.00,2013-02-06 11:13:00,
2013-02-06 05:18:00,0.4,-1.8,30.14,NW,304,0.0,1.0,90,0.00,,---,0.00,0.00,VWS V14.00,2013-02-06 11:18:00,
2013-02-06 05:23:00,1.1,-1.1,30.15,NW,304,0.0,1.0,90,0.00,,---,0.00,0.00,VWS V14.00,2013-02-06 11:23:00,
2013-02-06 05:28:00,1.8,-0.4,30.15,South,175,0.0,0.0,90,0.00,,---,0.00,0.00,VWS V14.00,2013-02-06 11:28:00,
2013-02-06 05:33:00,2.2,-0.3,30.15,South,175,1.0,2.0,89,0.00,,---,0.00,0.00,VWS V14.00,2013-02-06 11:33:00,
2013-02-06 05:38:00,2.4,-0.1,30.15,South,175,1.0,2.0,89,0.00,,---,0.00,0.00,VWS V14.00,2013-02-06 11:38:00,
2013-02-06 05:43:00,2.6,-0.1,30.15,South,175,0.0,2.0,88,0.00,,---,0.00,0.00,VWS V14.00,2013-02-06 11:43:00,
2013-02-06 05:48:00,2.6,-0.1,30.15,South,175,0.0,2.0,88,0.00,,---,0.00,0.00,VWS V14.00,2013-02-06 11:48:00,
2013-02-06 05:53:00,2.5,-0.2,30.14,South,175,0.0,2.0,88,0.00,,---,0.00,0.00,VWS V14.00,2013-02-06 11:53:00,
2013-02-06 05:58:00,2.6,-0.1,30.15,South,175,0.0,0.0,88,0.00,,---,0.00,0.00,VWS V14.00,2013-02-06 11:58:00,
2013-02-06 06:04:00,2.6,-0.1,30.15,South,175,0.0,0.0,88,0.00,,---,0.00,0.00,VWS V14.00,2013-02-06 12:04:00,
2013-02-06 06:09:00,2.7,0.0,30.16,South,175,0.0,0.0,88,0.00,,---,0.00,0.00,VWS V14.00,2013-02-06 12:09:00,
2013-02-06 06:14:00,2.8,0.1,30.15,South,175,0.0,1.0,88,0.00,,---,0.00,0.00,VWS V14.00,2013-02-06 12:14:00,
2013-02-06 06:19:00,2.8,0.1,30.15,South,175,0.0,1.0,88,0.00,,---,0.00,0.00,VWS V14.00,2013-02-06 12:19:00,
2013-02-06 06:24:00,2.8,0.1,30.14,South,175,0.0,1.0,88,0.00,,---,0.00,0.00,VWS V14.00,2013-02-06 12:24:00,
2013-02-06 06:29:00,2.8,0.1,30.14,South,175,0.0,0.0,88,0.00,,---,0.00,0.00,VWS V14.00,2013-02-06 12:29:00,
2013-02-06 06:34:00,2.8,0.1,30.14,South,175,0.0,0.0,88,0.00,,---,0.00,0.00,VWS V14.00,2013-02-06 12:34:00,
2013-02-06 06:39:00,2.8,-0.2,30.13,South,175,0.0,0.0,87,0.00,,---,0.00,0.00,VWS V14.00,2013-02-06 12:39:00,
2013-02-06 06:44:00,2.8,-0.2,30.13,South,175,0.0,0.0,87,0.00,,---,0.00,0.00,VWS V14.00,2013-02-06 12:44:00,
2013-02-06 06:49:00,2.8,0.1,30.13,South,175,0.0,0.0,88,0.00,,---,0.00,0.00,VWS V14.00,2013-02-06 12:49:00,
2013-02-06 06:54:00,2.9,0.2,30.13,South,175,0.0,0.0,88,0.00,,---,0.00,0.00,VWS V14.00,2013-02-06 12:54:00,
2013-02-06 06:59:00,3.1,0.4,30.13,South,175,0.0,0.0,88,0.00,,---,0.00,0.00,VWS V14.00,2013-02-06 12:59:00,
2013-02-06 07:04:00,3.2,0.4,30.12,South,175,0.0,0.0,88,0.00,,---,0.00,0.00,VWS V14.00,2013-02-06 13:04:00,
2013-02-06 07:09:00,3.3,0.6,30.12,South,175,0.0,0.0,88,0.00,,---,0.00,0.00,VWS V14.00,2013-02-06 13:09:00,
2013-02-06 07:15:00,3.5,0.8,30.12,South,175,0.0,0.0,88,0.00,,---,0.00,0.00,VWS V14.00,2013-02-06 13:15:00,
2013-02-06 07:20:00,3.7,1.2,30.13,South,175,0.0,0.0,89,0.00,,---,0.00,0.00,VWS V14.00,2013-02-06 13:20:00,
2013-02-06 07:25:00,4.1,1.6,30.12,South,175,0.0,0.0,89,0.00,,---,0.00,0.00,VWS V14.00,2013-02-06 13:25:00,
2013-02-06 07:30:00,4.4,1.9,30.13,South,175,0.0,0.0,89,0.00,,---,0.00,0.00,VWS V14.00,2013-02-06 13:30:00,
2013-02-06 07:35:00,4.6,2.1,30.13,South,175,0.0,0.0,89,0.00,,---,0.00,7.00,VWS V14.00,2013-02-06 13:35:00,
2013-02-06 07:40:00,4.9,2.4,30.14,South,175,0.0,0.0,89,0.00,,---,0.00,9.00,VWS V14.00,2013-02-06 13:40:00,
2013-02-06 07:45:00,5.1,2.6,30.13,South,175,0.0,0.0,89,0.00,,---,0.00,12.00,VWS V14.00,2013-02-06 13:45:00,
2013-02-06 07:50:00,5.4,3.1,30.13,South,175,0.0,0.0,90,0.00,,---,0.00,18.00,VWS V14.00,2013-02-06 13:50:00,
2013-02-06 07:55:00,5.6,3.1,30.13,South,175,0.0,0.0,89,0.00,,---,0.00,21.00,VWS V14.00,2013-02-06 13:55:00,
2013-02-06 08:00:00,5.9,3.4,30.14,South,175,0.0,0.0,89,0.00,,---,0.00,26.00,VWS V14.00,2013-02-06 14:00:00,
2013-02-06 08:06:00,6.1,3.8,30.14,South,175,0.0,0.0,90,0.00,,---,0.00,35.00,VWS V14.00,2013-02-06 14:06:00,
2013-02-06 08:11:00,6.4,4.1,30.14,South,175,0.0,0.0,90,0.00,,---,0.00,39.00,VWS V14.00,2013-02-06 14:11:00,
2013-02-06 08:16:00,6.7,4.4,30.14,South,175,0.0,0.0,90,0.00,,---,0.00,44.00,VWS V14.00,2013-02-06 14:16:00,
2013-02-06 08:21:00,7.0,4.7,30.14,South,175,0.0,0.0,90,0.00,,---,0.00,47.00,VWS V14.00,2013-02-06 14:21:00,
2013-02-06 08:26:00,7.3,5.0,30.14,South,175,0.0,0.0,90,0.00,,---,0.00,54.00,VWS V14.00,2013-02-06 14:26:00,
2013-02-06 08:31:00,7.6,5.0,30.14,South,175,0.0,1.0,89,0.00,,---,0.00,69.00,VWS V14.00,2013-02-06 14:31:00,
2013-02-06 08:36:00,7.8,5.2,30.14,South,175,0.0,1.0,89,0.00,,---,0.00,70.00,VWS V14.00,2013-02-06 14:36:00,
2013-02-06 08:41:00,8.1,5.5,30.15,South,175,0.0,1.0,89,0.00,,---,0.00,63.00,VWS V14.00,2013-02-06 14:41:00,
2013-02-06 08:46:00,8.3,5.7,30.15,South,175,0.0,1.0,89,0.00,,---,0.00,53.00,VWS V14.00,2013-02-06 14:46:00,
2013-02-06 08:51:00,8.5,5.9,30.14,South,175,0.0,1.0,89,0.00,,---,0.00,70.00,VWS V14.00,2013-02-06 14:51:00,
2013-02-06 08:56:00,8.9,6.6,30.13,SE,132,0.0,2.0,90,0.00,,---,0.00,91.00,VWS V14.00,2013-02-06 14:56:00,
2013-02-06 09:01:00,9.2,6.6,30.13,East,93,2.0,2.0,89,0.00,,---,0.00,123.00,VWS V14.00,2013-02-06 15:01:00,
2013-02-06 09:06:00,9.6,7.0,30.12,NNE,19,0.0,2.0,89,0.00,,---,0.00,97.00,VWS V14.00,2013-02-06 15:06:00,
2013-02-06 09:11:00,9.9,7.3,30.13,NNE,23,2.0,2.0,89,0.00,,---,0.00,67.00,VWS V14.00,2013-02-06 15:11:00,
2013-02-06 09:16:00,10.1,7.5,30.13,NNE,30,0.0,2.0,89,0.00,,---,0.00,70.00,VWS V14.00,2013-02-06 15:16:00,
2013-02-06 09:21:00,10.4,7.8,30.13,NNE,32,0.0,2.0,89,0.00,,---,0.00,74.00,VWS V14.00,2013-02-06 15:21:00,
2013-02-06 09:27:00,10.7,8.4,30.13,NNE,32,0.0,2.0,90,0.00,,---,0.00,88.00,VWS V14.00,2013-02-06 15:27:00,
2013-02-06 09:32:00,11.0,8.6,30.14,NNE,32,0.0,1.0,90,0.00,,---,0.00,93.00,VWS V14.00,2013-02-06 15:32:00,
2013-02-06 09:37:00,11.3,8.9,30.14,NNE,32,0.0,1.0,90,0.00,,---,0.00,88.00,VWS V14.00,2013-02-06 15:37:00,
2013-02-06 09:42:00,11.6,9.0,30.14,NE,36,0.0,2.0,89,0.00,,---,0.00,83.00,VWS V14.00,2013-02-06 15:42:00,
2013-02-06 09:47:00,11.8,9.2,30.14,NE,36,0.0,2.0,89,0.00,,---,0.00,88.00,VWS V14.00,2013-02-06 15:47:00,
2013-02-06 09:52:00,12.1,9.5,30.14,NE,36,0.0,2.0,89,0.00,,---,0.00,81.00,VWS V14.00,2013-02-06 15:52:00,
2013-02-06 09:57:00,12.2,9.3,30.14,NE,38,1.0,2.0,88,0.00,,---,0.00,70.00,VWS V14.00,2013-02-06 15:57:00,
2013-02-06 10:02:00,12.3,9.4,30.14,NE,42,0.0,1.0,88,0.00,,---,0.00,67.00,VWS V14.00,2013-02-06 16:02:00,
2013-02-06 10:07:00,12.3,9.4,30.13,NE,42,0.0,1.0,88,0.00,,---,0.00,72.00,VWS V14.00,2013-02-06 16:07:00,
2013-02-06 10:12:00,12.4,9.5,30.12,East,89,0.0,2.0,88,0.00,,---,0.00,81.00,VWS V14.00,2013-02-06 16:12:00,
2013-02-06 10:17:00,12.5,9.6,30.12,East,88,0.0,2.0,88,0.00,,---,0.00,95.00,VWS V14.00,2013-02-06 16:17:00,
2013-02-06 10:22:00,12.6,9.7,30.12,NNE,32,0.0,3.0,88,0.00,,---,0.00,98.00,VWS V14.00,2013-02-06 16:22:00,
2013-02-06 10:27:00,12.8,9.9,30.11,NE,36,2.0,3.0,88,0.00,,---,0.00,98.00,VWS V14.00,2013-02-06 16:27:00,
2013-02-06 10:32:00,13.1,10.5,30.11,NE,49,0.0,3.0,89,0.00,,---,0.00,114.00,VWS V14.00,2013-02-06 16:32:00,
2013-02-06 10:37:00,13.5,10.6,30.11,NE,52,0.0,3.0,88,0.00,,---,0.00,113.00,VWS V14.00,2013-02-06 16:37:00,
2013-02-06 10:42:00,13.8,10.9,30.11,NE,54,0.0,4.0,88,0.00,,---,0.00,121.00,VWS V14.00,2013-02-06 16:42:00,
2013-02-06 10:47:00,14.1,11.2,30.11,NE,51,0.0,4.0,88,0.00,,---,0.00,128.00,VWS V14.00,2013-02-06 16:47:00,
2013-02-06 10:53:00,14.6,11.7,30.11,NE,54,0.0,4.0,88,0.00,,---,0.00,139.00,VWS V14.00,2013-02-06 16:53:00,
2013-02-06 10:58:00,15.0,11.8,30.10,ESE,121,0.0,0.0,87,0.00,,---,0.00,134.00,VWS V14.00,2013-02-06 16:58:00,
2013-02-06 11:03:00,15.4,12.2,30.10,ESE,115,1.0,4.0,87,0.00,,---,0.00,142.00,VWS V14.00,2013-02-06 17:03:00,
2013-02-06 11:08:00,15.7,12.3,30.10,East,99,2.0,4.0,86,0.00,,---,0.00,146.00,VWS V14.00,2013-02-06 17:08:00,
2013-02-06 11:13:00,15.9,12.5,30.10,NE,44,0.0,4.0,86,0.00,,---,0.00,137.00,VWS V14.00,2013-02-06 17:13:00,
2013-02-06 11:18:00,16.1,12.4,30.10,North,10,0.0,5.0,85,0.00,,---,0.00,153.00,VWS V14.00,2013-02-06 17:18:00,
2013-02-06 11:23:00,16.3,12.6,30.09,NNE,30,0.0,5.0,85,0.00,,---,0.00,162.00,VWS V14.00,2013-02-06 17:23:00,
2013-02-06 11:28:00,16.8,13.4,30.09,South,178,0.0,1.0,86,0.00,,---,0.00,174.00,VWS V14.00,2013-02-06 17:28:00,
2013-02-06 11:33:00,17.2,13.5,30.09,NE,35,3.0,3.0,85,0.00,,---,0.00,209.00,VWS V14.00,2013-02-06 17:33:00,
2013-02-06 11:38:00,17.3,13.3,30.08,NNE,26,1.0,7.0,84,0.00,,---,0.00,211.00,VWS V14.00,2013-02-06 17:38:00,
2013-02-06 11:43:00,17.6,13.6,30.08,SW,230,1.0,7.0,84,0.00,,---,0.00,199.00,VWS V14.00,2013-02-06 17:43:00,
2013-02-06 11:48:00,18.1,14.1,30.07,SSE,148,1.0,7.0,84,0.00,,---,0.00,216.00,VWS V14.00,2013-02-06 17:48:00,
2013-02-06 11:53:00,18.7,14.4,30.07,North,5,0.0,7.0,83,0.00,,---,0.00,227.00,VWS V14.00,2013-02-06 17:53:00,
2013-02-06 11:58:00,19.1,14.5,30.06,East,84,0.0,4.0,82,0.00,,---,0.00,264.00,VWS V14.00,2013-02-06 17:58:00,
2013-02-06 12:03:00,19.7,15.1,30.05,NE,51,0.0,6.0,82,0.00,,---,0.00,274.00,VWS V14.00,2013-02-06 18:03:00,
2013-02-06 12:08:00,20.2,15.6,30.05,ENE,63,0.0,7.0,82,0.00,,---,0.00,230.00,VWS V14.00,2013-02-06 18:08:00,
2013-02-06 12:13:00,20.5,15.6,30.05,East,87,2.0,7.0,81,0.00,,---,0.00,236.00,VWS V14.00,2013-02-06 18:13:00,
2013-02-06 12:18:00,20.9,15.7,30.05,SE,142,0.0,7.0,80,0.00,,---,0.00,216.00,VWS V14.00,2013-02-06 18:18:00,
2013-02-06 12:23:00,21.2,16.3,30.05,East,93,0.0,7.0,81,0.00,,---,0.00,248.00,VWS V14.00,2013-02-06 18:23:00,
2013-02-06 12:29:00,21.6,16.4,30.04,ESE,122,2.0,2.0,80,0.00,,---,0.00,237.00,VWS V14.00,2013-02-06 18:29:00,
2013-02-06 12:34:00,22.0,16.8,30.05,SW,226,1.0,3.0,80,0.00,,---,0.00,250.00,VWS V14.00,2013-02-06 18:34:00,
2013-02-06 12:39:00,22.4,16.9,30.04,ENE,61,1.0,4.0,79,0.00,,---,0.00,207.00,VWS V14.00,2013-02-06 18:39:00,
2013-02-06 12:44:00,22.6,17.1,30.03,SE,137,0.0,4.0,79,0.00,,---,0.00,193.00,VWS V14.00,2013-02-06 18:44:00,
2013-02-06 12:49:00,22.7,17.2,30.03,North,360,2.0,4.0,79,0.00,,---,0.00,174.00,VWS V14.00,2013-02-06 18:49:00,
2013-02-06 12:54:00,22.6,17.1,30.04,ENE,65,1.0,6.0,79,0.00,,---,0.00,188.00,VWS V14.00,2013-02-06 18:54:00,
2013-02-06 12:59:00,22.7,17.2,30.03,NNE,19,3.0,4.0,79,0.00,,---,0.00,302.00,VWS V14.00,2013-02-06 18:59:00,
2013-02-06 13:04:00,23.0,17.5,30.03,NE,53,0.0,5.0,79,0.00,,---,0.00,422.00,VWS V14.00,2013-02-06 19:04:00,
2013-02-06 13:09:00,23.6,17.8,30.02,NE,34,0.0,5.0,78,0.00,,---,0.00,357.00,VWS V14.00,2013-02-06 19:09:00,
2013-02-06 13:14:00,24.2,18.0,30.01,NNW,331,1.0,6.0,77,0.00,,---,0.00,492.00,VWS V14.00,2013-02-06 19:14:00,
2013-02-06 13:19:00,24.5,18.0,30.01,NNE,24,3.0,6.0,76,0.00,,---,0.00,526.00,VWS V14.00,2013-02-06 19:19:00,
2013-02-06 13:24:00,24.7,18.5,30.01,SE,125,0.0,6.0,77,0.00,,---,0.00,325.00,VWS V14.00,2013-02-06 19:24:00,
2013-02-06 13:29:00,24.9,18.7,30.00,South,191,2.0,6.0,77,0.00,,---,0.00,279.00,VWS V14.00,2013-02-06 19:29:00,
2013-02-06 13:34:00,25.1,18.9,30.00,ENE,68,0.0,6.0,77,0.00,,---,0.00,373.00,VWS V14.00,2013-02-06 19:34:00,
2013-02-06 13:40:00,25.3,19.4,30.00,ESE,119,1.0,6.0,78,0.00,,---,0.00,320.00,VWS V14.00,2013-02-06 19:40:00,
2013-02-06 13:45:00,25.7,19.5,30.01,NE,39,0.0,6.0,77,0.00,,---,0.00,385.00,VWS V14.00,2013-02-06 19:45:00,
2013-02-06 13:50:00,26.1,19.9,30.01,SE,142,1.0,6.0,77,0.00,,---,0.00,278.00,VWS V14.00,2013-02-06 19:50:00,
2013-02-06 13:55:00,26.3,19.8,30.01,East,81,1.0,6.0,76,0.00,,---,0.00,285.00,VWS V14.00,2013-02-06 19:55:00,
2013-02-06 14:00:00,26.6,20.1,30.01,SSE,163,0.0,5.0,76,0.00,,---,0.00,264.00,VWS V14.00,2013-02-06 20:00:00,
2013-02-06 14:05:00,26.6,19.8,30.00,NE,54,2.0,5.0,75,0.00,,---,0.00,260.00,VWS V14.00,2013-02-06 20:05:00,
2013-02-06 14:10:00,26.5,19.7,30.01,SE,138,1.0,5.0,75,0.00,,---,0.00,257.00,VWS V14.00,2013-02-06 20:10:00,
2013-02-06 14:15:00,26.6,19.8,30.00,NE,46,1.0,5.0,75,0.00,,---,0.00,186.00,VWS V14.00,2013-02-06 20:15:00,
2013-02-06 14:20:00,26.3,19.5,30.00,North,5,0.0,6.0,75,0.00,,---,0.00,181.00,VWS V14.00,2013-02-06 20:20:00,
2013-02-06 14:25:00,26.0,19.5,30.00,NE,39,0.0,6.0,76,0.00,,---,0.00,160.00,VWS V14.00,2013-02-06 20:25:00,
2013-02-06 14:30:00,25.9,19.4,30.00,East,92,2.0,4.0,76,0.00,,---,0.00,179.00,VWS V14.00,2013-02-06 20:30:00,
2013-02-06 14:35:00,25.9,19.7,30.00,ESE,105,3.0,4.0,77,0.00,,---,0.00,181.00,VWS V14.00,2013-02-06 20:35:00,
2013-02-06 14:40:00,25.9,19.7,30.00,NNE,22,0.0,4.0,77,0.00,,---,0.00,174.00,VWS V14.00,2013-02-06 20:40:00,
2013-02-06 14:45:00,25.9,19.7,30.00,NE,34,0.0,4.0,77,0.00,,---,0.00,174.00,VWS V14.00,2013-02-06 20:45:00,
2013-02-06 14:50:00,26.0,19.8,29.99,NE,40,0.0,4.0,77,0.00,,---,0.00,176.00,VWS V14.00,2013-02-06 20:50:00,
2013-02-06 14:55:00,26.0,20.1,29.99,NNW,334,0.0,5.0,78,0.00,,---,0.00,172.00,VWS V14.00,2013-02-06 20:55:00,
2013-02-06 15:00:00,26.1,19.9,29.99,NNW,334,0.0,2.0,77,0.00,,---,0.00,160.00,VWS V14.00,2013-02-06 21:00:00,
2013-02-06 15:05:00,26.2,20.0,29.98,ESE,112,0.0,3.0,77,0.00,,---,0.00,153.00,VWS V14.00,2013-02-06 21:05:00,
2013-02-06 15:10:00,26.3,20.1,29.98,North,355,0.0,5.0,77,0.00,,---,0.00,151.00,VWS V14.00,2013-02-06 21:10:00,
2013-02-06 15:16:00,26.2,20.0,29.98,ESE,113,1.0,5.0,77,0.00,,---,0.00,144.00,VWS V14.00,2013-02-06 21:16:00,
2013-02-06 15:21:00,26.0,20.1,29.98,NE,34,0.0,5.0,78,0.00,,---,0.00,144.00,VWS V14.00,2013-02-06 21:21:00,
2013-02-06 15:26:00,25.9,20.0,29.99,NE,36,0.0,5.0,78,0.00,,---,0.00,130.00,VWS V14.00,2013-02-06 21:26:00,
2013-02-06 15:31:00,25.9,20.0,29.98,East,93,2.0,5.0,78,0.00,,---,0.00,127.00,VWS V14.00,2013-02-06 21:31:00,
2013-02-06 15:36:00,26.0,20.1,29.99,East,92,1.0,5.0,78,0.00,,---,0.00,118.00,VWS V14.00,2013-02-06 21:36:00,
2013-02-06 15:41:00,26.0,20.1,29.99,North,10,0.0,5.0,78,0.00,,---,0.00,109.00,VWS V14.00,2013-02-06 21:41:00,
2013-02-06 15:46:00,25.8,19.9,29.99,SE,140,0.0,6.0,78,0.00,,---,0.00,98.00,VWS V14.00,2013-02-06 21:46:00,
2013-02-06 15:51:00,25.7,20.1,29.99,East,79,0.0,6.0,79,0.00,,---,0.00,95.00,VWS V14.00,2013-02-06 21:51:00,
2013-02-06 15:56:00,25.6,20.0,29.99,ESE,107,1.0,6.0,79,0.00,,---,0.00,95.00,VWS V14.00,2013-02-06 21:56:00,
2013-02-06 16:01:00,25.6,20.0,29.99,ENE,61,1.0,2.0,79,0.00,,---,0.00,88.00,VWS V14.00,2013-02-06 22:01:00,
2013-02-06 16:06:00,25.4,19.8,29.99,ENE,57,0.0,3.0,79,0.00,,---,0.00,83.00,VWS V14.00,2013-02-06 22:06:00,
2013-02-06 16:11:00,25.3,20.0,29.99,NE,44,0.0,4.0,80,0.00,,---,0.00,79.00,VWS V14.00,2013-02-06 22:11:00,
2013-02-06 16:16:00,25.3,20.0,29.98,NE,38,1.0,4.0,80,0.00,,---,0.00,72.00,VWS V14.00,2013-02-06 22:16:00,
2013-02-06 16:21:00,25.2,19.9,29.98,South,185,0.0,4.0,80,0.00,,---,0.00,65.00,VWS V14.00,2013-02-06 22:21:00,
2013-02-06 16:26:00,25.2,19.9,29.98,ENE,62,1.0,4.0,80,0.00,,---,0.00,60.00,VWS V14.00,2013-02-06 22:26:00,
2013-02-06 16:31:00,25.1,19.8,29.99,ENE,75,0.0,4.0,80,0.00,,---,0.00,54.00,VWS V14.00,2013-02-06 22:31:00,
2013-02-06 16:36:00,25.0,19.7,29.99,SSE,163,0.0,4.0,80,0.00,,---,0.00,51.00,VWS V14.00,2013-02-06 22:36:00,
2013-02-06 16:41:00,24.9,19.6,29.98,NW,325,0.0,4.0,80,0.00,,---,0.00,44.00,VWS V14.00,2013-02-06 22:41:00,
2013-02-06 16:46:00,24.7,19.4,29.98,NNE,22,0.0,5.0,80,0.00,,---,0.00,37.00,VWS V14.00,2013-02-06 22:46:00,
2013-02-06 16:52:00,24.5,19.2,29.99,NE,52,0.0,5.0,80,0.00,,---,0.00,33.00,VWS V14.00,2013-02-06 22:52:00,
2013-02-06 16:57:00,24.3,19.3,29.99,NE,44,1.0,6.0,81,0.00,,---,0.00,28.00,VWS V14.00,2013-02-06 22:57:00,
2013-02-06 17:02:00,24.2,19.2,29.98,ENE,70,1.0,4.0,81,0.00,,---,0.00,23.00,VWS V14.00,2013-02-06 23:02:00,
2013-02-06 17:07:00,24.0,19.3,29.99,ENE,61,1.0,6.0,82,0.00,,---,0.00,18.00,VWS V14.00,2013-02-06 23:07:00,
2013-02-06 17:12:00,24.0,19.3,29.98,ENE,73,0.0,6.0,82,0.00,,---,0.00,14.00,VWS V14.00,2013-02-06 23:12:00,
2013-02-06 17:17:00,23.9,19.2,29.99,North,5,0.0,6.0,82,0.00,,---,0.00,9.00,VWS V14.00,2013-02-06 23:17:00,
2013-02-06 17:22:00,23.8,19.1,29.99,North,11,0.0,6.0,82,0.00,,---,0.00,7.00,VWS V14.00,2013-02-06 23:22:00,
2013-02-06 17:27:00,23.7,19.0,29.99,North,351,0.0,6.0,82,0.00,,---,0.00,0.00,VWS V14.00,2013-02-06 23:27:00,
2013-02-06 17:32:00,23.6,19.2,29.99,SSE,163,0.0,3.0,83,0.00,,---,0.00,0.00,VWS V14.00,2013-02-06 23:32:00,
2013-02-06 17:38:00,23.6,19.2,29.99,South,180,1.0,4.0,83,0.00,,---,0.00,0.00,VWS V14.00,2013-02-06 23:38:00,
2013-02-06 17:43:00,23.5,19.1,29.99,SE,125,3.0,4.0,83,0.00,,---,0.00,0.00,VWS V14.00,2013-02-06 23:43:00,
2013-02-06 17:48:00,23.5,19.4,29.99,NNE,19,0.0,4.0,84,0.00,,---,0.00,0.00,VWS V14.00,2013-02-06 23:48:00,
2013-02-06 17:53:00,23.5,19.4,29.99,ENE,71,0.0,4.0,84,0.00,,---,0.00,0.00,VWS V14.00,2013-02-06 23:53:00,
2013-02-06 17:58:00,23.5,19.4,29.99,South,174,0.0,0.0,84,0.00,,---,0.00,0.00,VWS V14.00,2013-02-06 23:58:00,
2013-02-06 18:03:00,23.5,19.4,29.99,SE,126,2.0,5.0,84,0.00,,---,0.00,0.00,VWS V14.00,2013-02-07 00:03:00,
2013-02-06 18:08:00,23.5,19.4,29.99,SE,126,1.0,5.0,84,0.00,,---,0.00,0.00,VWS V14.00,2013-02-07 00:08:00,
2013-02-06 18:13:00,23.5,19.4,29.99,ESE,121,0.0,5.0,84,0.00,,---,0.00,0.00,VWS V14.00,2013-02-07 00:13:00,
2013-02-06 18:18:00,23.5,19.4,29.99,NNE,22,0.0,5.0,84,0.00,,---,0.00,0.00,VWS V14.00,2013-02-07 00:18:00,
2013-02-06 18:23:00,23.6,19.5,29.99,NNE,26,0.0,5.0,84,0.00,,---,0.00,0.00,VWS V14.00,2013-02-07 00:23:00,
2013-02-06 18:28:00,23.6,19.5,29.99,NE,46,4.0,4.0,84,0.00,,---,0.00,0.00,VWS V14.00,2013-02-07 00:28:00,
2013-02-06 18:33:00,23.6,19.5,29.99,NE,42,0.0,4.0,84,0.00,,---,0.00,0.00,VWS V14.00,2013-02-07 00:33:00,
2013-02-06 18:38:00,23.6,19.5,30.00,WSW,253,1.0,4.0,84,0.00,,---,0.00,0.00,VWS V14.00,2013-02-07 00:38:00,
2013-02-06 18:44:00,23.6,19.8,30.00,NE,43,2.0,4.0,85,0.00,,---,0.00,0.00,VWS V14.00,2013-02-07 00:44:00,
2013-02-06 18:49:00,23.6,19.8,29.99,East,84,0.0,4.0,85,0.00,,---,0.00,0.00,VWS V14.00,2013-02-07 00:49:00,
2013-02-06 18:54:00,23.6,19.8,29.99,ENE,61,0.0,4.0,85,0.00,,---,0.00,0.00,VWS V14.00,2013-02-07 00:54:00,
2013-02-06 18:59:00,23.6,19.8,29.99,NE,40,0.0,1.0,85,0.00,,---,0.00,0.00,VWS V14.00,2013-02-07 00:59:00,
2013-02-06 19:04:00,23.6,19.8,29.99,ESE,119,0.0,3.0,85,0.00,,---,0.00,0.00,VWS V14.00,2013-02-07 01:04:00,
2013-02-06 19:09:00,23.7,19.9,29.99,NE,52,0.0,3.0,85,0.00,,---,0.00,0.00,VWS V14.00,2013-02-07 01:09:00,
2013-02-06 19:14:00,23.8,20.0,30.00,NNE,32,0.0,4.0,85,0.00,,---,0.00,0.00,VWS V14.00,2013-02-07 01:14:00,
2013-02-06 19:19:00,23.8,20.0,30.00,North,11,0.0,4.0,85,0.00,,---,0.00,0.00,VWS V14.00,2013-02-07 01:19:00,
2013-02-06 19:24:00,23.9,20.1,30.00,East,84,1.0,4.0,85,0.00,,---,0.00,0.00,VWS V14.00,2013-02-07 01:24:00,
2013-02-06 19:29:00,23.9,20.1,30.00,NNE,28,0.0,3.0,85,0.00,,---,0.00,0.00,VWS V14.00,2013-02-07 01:29:00,
2013-02-06 19:34:00,23.9,20.1,30.00,NE,51,0.0,3.0,85,0.00,,---,0.00,0.00,VWS V14.00,2013-02-07 01:34:00,
2013-02-06 19:39:00,23.9,20.1,30.00,NE,35,3.0,3.0,85,0.00,,---,0.00,0.00,VWS V14.00,2013-02-07 01:39:00,
2013-02-06 19:44:00,24.0,20.1,30.01,NE,51,0.0,4.0,85,0.00,,---,0.00,0.00,VWS V14.00,2013-02-07 01:44:00,
2013-02-06 19:49:00,24.0,20.1,30.01,NNE,26,0.0,4.0,85,0.00,,---,0.00,0.00,VWS V14.00,2013-02-07 01:49:00,
2013-02-06 19:54:00,23.8,19.7,30.01,NNE,25,0.0,4.0,84,0.00,,---,0.00,0.00,VWS V14.00,2013-02-07 01:54:00,
2013-02-06 20:00:00,23.7,19.9,30.01,NNE,29,0.0,3.0,85,0.00,,---,0.00,0.00,VWS V14.00,2013-02-07 02:00:00,
2013-02-06 20:05:00,23.6,19.8,30.01,NNE,17,3.0,4.0,85,0.00,,---,0.00,0.00,VWS V14.00,2013-02-07 02:05:00,
2013-02-06 20:10:00,23.5,19.7,30.01,NNE,15,0.0,4.0,85,0.00,,---,0.00,0.00,VWS V14.00,2013-02-07 02:10:00,
2013-02-06 20:15:00,23.3,19.5,30.01,NNW,338,5.0,5.0,85,0.00,,---,0.00,0.00,VWS V14.00,2013-02-07 02:15:00,
2013-02-06 20:20:00,23.2,19.4,30.02,NE,35,1.0,5.0,85,0.00,,---,0.00,0.00,VWS V14.00,2013-02-07 02:20:00,
2013-02-06 20:25:00,23.1,19.3,30.01,NE,36,0.0,5.0,85,0.00,,---,0.00,0.00,VWS V14.00,2013-02-07 02:25:00,
2013-02-06 20:30:00,23.0,19.2,30.01,NNE,25,2.0,3.0,85,0.00,,---,0.00,0.00,VWS V14.00,2013-02-07 02:30:00,
2013-02-06 20:35:00,22.9,19.4,30.01,NNE,28,0.0,3.0,86,0.00,,---,0.00,0.00,VWS V14.00,2013-02-07 02:35:00,
2013-02-06 20:40:00,22.9,19.1,30.01,NNE,32,0.0,3.0,85,0.00,,---,0.00,0.00,VWS V14.00,2013-02-07 02:40:00,
2013-02-06 20:45:00,22.8,19.2,30.01,NE,55,1.0,3.0,86,0.00,,---,0.00,0.00,VWS V14.00,2013-02-07 02:45:00,
2013-02-06 20:50:00,22.8,19.2,30.01,NNE,19,2.0,3.0,86,0.00,,---,0.00,0.00,VWS V14.00,2013-02-07 02:50:00,
2013-02-06 20:55:00,22.7,19.1,30.01,NNE,21,0.0,3.0,86,0.00,,---,0.00,0.00,VWS V14.00,2013-02-07 02:55:00,
2013-02-06 21:01:00,22.7,19.1,30.02,NNE,30,0.0,2.0,86,0.00,,---,0.00,0.00,VWS V14.00,2013-02-07 03:01:00,
2013-02-06 21:06:00,22.7,19.1,30.01,NNE,28,1.0,2.0,86,0.00,,---,0.00,0.00,VWS V14.00,2013-02-07 03:06:00,
2013-02-06 21:11:00,22.7,19.1,30.02,NE,56,0.0,2.0,86,0.00,,---,0.00,0.00,VWS V14.00,2013-02-07 03:11:00,
2013-02-06 21:16:00,22.7,19.4,30.02,NE,43,1.0,2.0,87,0.00,,---,0.00,0.00,VWS V14.00,2013-02-07 03:16:00,
2013-02-06 21:21:00,22.7,19.1,30.02,NE,41,0.0,2.0,86,0.00,,---,0.00,0.00,VWS V14.00,2013-02-07 03:21:00,
2013-02-06 21:26:00,22.7,19.1,30.02,NE,42,0.0,2.0,86,0.00,,---,0.00,0.00,VWS V14.00,2013-02-07 03:26:00,
2013-02-06 21:31:00,22.6,19.0,30.01,NE,40,0.0,2.0,86,0.00,,---,0.00,0.00,VWS V14.00,2013-02-07 03:31:00,
2013-02-06 21:36:00,22.5,19.0,30.01,NE,47,0.0,2.0,86,0.00,,---,0.00,0.00,VWS V14.00,2013-02-07 03:36:00,
2013-02-06 21:41:00,22.4,19.1,30.01,NE,46,0.0,2.0,87,0.00,,---,0.00,0.00,VWS V14.00,2013-02-07 03:41:00,
2013-02-06 21:46:00,22.3,19.0,30.01,NE,46,0.0,2.0,87,0.00,,---,0.00,0.00,VWS V14.00,2013-02-07 03:46:00,
2013-02-06 21:51:00,22.2,18.9,30.02,NE,46,1.0,2.0,87,0.00,,---,0.00,0.00,VWS V14.00,2013-02-07 03:51:00,
2013-02-06 21:56:00,22.1,18.8,30.02,NE,41,0.0,2.0,87,0.00,,---,0.00,0.00,VWS V14.00,2013-02-07 03:56:00,
2013-02-06 22:02:00,22.0,18.7,30.02,NNE,32,0.0,1.0,87,0.00,,---,0.00,0.00,VWS V14.00,2013-02-07 04:02:00,
2013-02-06 22:07:00,22.0,18.7,30.02,NNE,32,1.0,1.0,87,0.00,,---,0.00,0.00,VWS V14.00,2013-02-07 04:07:00,
2013-02-06 22:12:00,22.0,18.7,30.02,NNE,29,0.0,2.0,87,0.00,,---,0.00,0.00,VWS V14.00,2013-02-07 04:12:00,
2013-02-06 22:17:00,21.9,18.6,30.02,NNE,29,0.0,2.0,87,0.00,,---,0.00,0.00,VWS V14.00,2013-02-07 04:17:00,
2013-02-06 22:22:00,21.8,18.5,30.02,NNE,29,0.0,2.0,87,0.00,,---,0.00,0.00,VWS V14.00,2013-02-07 04:22:00,
2013-02-06 22:27:00,21.7,18.4,30.03,NNE,29,1.0,2.0,87,0.00,,---,0.00,0.00,VWS V14.00,2013-02-07 04:27:00,
2013-02-06 22:32:00,21.6,18.3,30.03,NNE,23,2.0,2.0,87,0.00,,---,0.00,0.00,VWS V14.00,2013-02-07 04:32:00,
2013-02-06 22:37:00,21.2,17.7,30.03,NNE,23,0.0,2.0,86,0.00,,---,0.00,0.00,VWS V14.00,2013-02-07 04:37:00,
2013-02-06 22:42:00,20.7,17.2,30.03,NNE,23,2.0,2.0,86,0.00,,---,0.00,0.00,VWS V14.00,2013-02-07 04:42:00,
2013-02-06 22:47:00,20.5,17.5,30.03,North,360,0.0,2.0,88,0.00,,---,0.00,0.00,VWS V14.00,2013-02-07 04:47:00,
2013-02-06 22:53:00,20.5,17.8,30.03,NNW,348,2.0,3.0,89,0.00,,---,0.00,0.00,VWS V14.00,2013-02-07 04:53:00,
2013-02-06 22:58:00,20.6,17.9,30.03,North,5,0.0,1.0,89,0.00,,---,0.00,0.00,VWS V14.00,2013-02-07 04:58:00,
2013-02-06 23:00:00,20.6,17.9,30.03,North,9,3.0,4.0,89,0.00,,---,0.00,0.00,VWS V14.00,2013-02-07 05:00:00,
2013-02-06 23:01:00,20.7,18.0,30.03,North,5,3.0,4.0,89,0.00,,---,0.00,0.00,VWS V14.00,2013-02-07 05:01:00,
2013-02-06 23:06:00,20.9,18.2,30.03,NNE,26,1.0,4.0,89,0.00,,---,0.00,0.00,VWS V14.00,2013-02-07 05:06:00,
2013-02-06 23:11:00,21.1,18.4,30.02,NNW,348,1.0,4.0,89,0.00,,---,0.00,0.00,VWS V14.00,2013-02-07 05:11:00,
2013-02-06 23:16:00,21.1,18.4,30.02,North,355,0.0,4.0,89,0.00,,---,0.00,0.00,VWS V14.00,2013-02-07 05:16:00,
2013-02-06 23:21:00,21.1,18.4,30.02,NNW,331,2.0,4.0,89,0.00,,---,0.00,0.00,VWS V14.00,2013-02-07 05:21:00,
2013-02-06 23:26:00,21.1,18.4,30.03,North,360,1.0,4.0,89,0.00,,---,0.00,0.00,VWS V14.00,2013-02-07 05:26:00,
2013-02-06 23:31:00,21.1,18.4,30.03,North,360,0.0,3.0,89,0.00,,---,0.00,0.00,VWS V14.00,2013-02-07 05:31:00,
2013-02-06 23:36:00,21.0,18.3,30.03,North,360,0.0,3.0,89,0.00,,---,0.00,0.00,VWS V14.00,2013-02-07 05:36:00,
2013-02-06 23:41:00,21.0,18.3,30.03,NNE,15,1.0,3.0,89,0.00,,---,0.00,0.00,VWS V14.00,2013-02-07 05:41:00,
2013-02-06 23:46:00,21.1,18.4,30.03,NNE,15,1.0,4.0,89,0.00,,---,0.00,0.00,VWS V14.00,2013-02-07 05:46:00,
2013-02-06 23:51:00,21.1,18.4,30.03,NE,48,0.0,4.0,89,0.00,,---,0.00,0.00,VWS V14.00,2013-02-07 05:51:00,
2013-02-06 23:57:00,21.1,18.4,30.03,North,9,0.0,4.0,89,0.00,,---,0.00,0.00,VWS V14.00,2013-02-07 05:57:00,